{"data":{"norad_id":64360,"epoch":"2026-09-20T22:00:03.000096Z","epoch_age_seconds":98169,"freshness":"FRESH","line1":"1 64360U 25126S   26263.91670139  .00060763  00000+0  20493-2 0  9991","line2":"2 64360  70.0002 259.8014 0003568 259.5462 167.8419 15.30390028  5770","mean_motion":15.30390028,"eccentricity":0.0003568,"inclination_deg":70.0002,"raan_deg":259.8014,"arg_perigee_deg":259.5462,"mean_anomaly_deg":167.8419,"bstar":0.0020493,"rev_number":577,"period_min":94.093660678244,"perigee_km":472.20266518056,"apogee_km":477.09281237015,"semimajor_km":6852.7847387754,"source":"CELESTRAK","updated_at":"2026-09-21T09:00:35.319196Z"}}